{"data":{"norad_id":69399,"epoch":"2026-09-20T04:45:11.452608Z","epoch_age_seconds":60886,"freshness":"FRESH","line1":"1 69399U 26124T   26263.19804922  .00000104  00000+0  14287-3 0  9994","line2":"2 69399  89.0047 352.0503 0001836 104.7594 255.3761 13.51028565 14855","mean_motion":13.51028565,"eccentricity":0.0001836,"inclination_deg":89.0047,"raan_deg":352.0503,"arg_perigee_deg":104.7594,"mean_anomaly_deg":255.3761,"bstar":0.00014287,"rev_number":1485,"period_min":106.5854592053,"perigee_km":1067.1094218878,"apogee_km":1069.8438184091,"semimajor_km":7446.6136201485,"source":"CELESTRAK","updated_at":"2026-09-20T09:00:24.863935Z"}}